QPF
0.06 0.06 0.07 0.07 0.07 0.06 0.06 0.05 0.05 0.03 0.02 0.01 0.01 0.02 0.02 0.04 0.06 0.07 0.07 0.09 0.09 0.08 0.06 0.05 0.04 0.04 0.04 0.04 0.03 0.03 0.03 0.03 0.02 0.02 0.02 0.01 0.01 0.02
0.06 0.06 0.04 0.05 0.06 0.06 0.06 0.07 0.06 0.04 0.02 0.01 0.02 0.02 0.02 0.02 0.04 0.06 0.06 0.08 0.07 0.07 0.07 0.06 0.06 0.05 0.05 0.04 0.03 0.02 0.02 0.02 0.02 0.02 0.02 0.01 0.01 0.02
0.05 0.06 0.04 0.04 0.06 0.06 0.05 0.05 0.05 0.05 0.03 0.03 0.03 0.02 0.02 0.02 0.03 0.04 0.05 0.05 0.04 0.04 0.05 0.05 0.05 0.04 0.04 0.04 0.04 0.03 0.02 0.02 0.03 0.02 0.01 0.01 0.01 0.01
0.06 0.05 0.03 0.02 0.04 0.04 0.03 0.02 0.02 0.02 0.02 0.02 0.02 0.04 0.03 0.02 0.02 0.03 0.03 0.02 0.02 0.03 0.04 0.04 0.03 0.03 0.03 0.03 0.03 0.02 0.01 0.02 0.02 0.02 0.02 0.02 0.02 0.01
0.06 0.05 0.03 0.03 0.03 0.03 0.04 0.02 0.02 0.01 0.01 0.02 0.02 0.03 0.03 0.03 0.03 0.03 0.04 0.03 0.03 0.03 0.04 0.04 0.02 0.02 0.02 0.02 0.02 0.02 0.02 0.02 0.01 0.01 0.01 0.01 0.02 0.02
0.07 0.05 0.04 0.04 0.03 0.03 0.03 0.02 0.02 0.02 0.02 0.01 0.01 0.02 0.02 0.04 0.04 0.04 0.04 0.04 0.04 0.03 0.03 0.03 0.03 0.02 0.02 0.02 0.01 0.02 0.02 0.01 0.01 0.01 0.01 0.01 0.01 0.01
0.06 0.06 0.04 0.04 0.04 0.03 0.03 0.03 0.04 0.03 0.02 0.01 0.01 0.02 0.02 0.02 0.03 0.03 0.04 0.03 0.03 0.03 0.03 0.03 0.03 0.03 0.02 0.02 0.02 0.01 0.02 0.01 0.01 0.01 0.00 0.01 0.01 0.01
0.05 0.10 0.09 0.06 0.05 0.05 0.04 0.04 0.03 0.03 0.02 0.02 0.02 0.02 0.02 0.02 0.02 0.02 0.03 0.03 0.03 0.03 0.04 0.04 0.04 0.03 0.03 0.03 0.02 0.02 0.01 0.01 0.01 0.01 0.01 0.01 0.01 0.01
0.04 0.09 0.13 0.11 0.08 0.06 0.04 0.03 0.02 0.02 0.02 0.03 0.03 0.02 0.03 0.03 0.03 0.04 0.03 0.03 0.03 0.02 0.04 0.03 0.03 0.03 0.03 0.03 0.04 0.02 0.02 0.01 0.01 0.01 0.01 0.02 0.02 0.02
0.02 0.04 0.06 0.05 0.04 0.04 0.03 0.02 0.01 0.01 0.02 0.02 0.02 0.03 0.03 0.03 0.05 0.05 0.05 0.04 0.03 0.03 0.03 0.04 0.03 0.02 0.02 0.03 0.04 0.04 0.02 0.02 0.02 0.02 0.02 0.02 0.03 0.05
0.02 0.03 0.02 0.02 0.03 0.02 0.01 0.01 0.01 0.01 0.01 0.02 0.03 0.03 0.03 0.04 0.05 0.05 0.06 0.06 0.05 0.04 0.04 0.06 0.05 0.04 0.03 0.02 0.03 0.05 0.05 0.04 0.03 0.03 0.03 0.04 0.04 0.05
0.02 0.02 0.02 0.02 0.02 0.01 0.01 0.00 0.00 0.00 0.01 0.02 0.03 0.03 0.03 0.04 0.05 0.04 0.05 0.05 0.05 0.05 0.05 0.08 0.08 0.07 0.06 0.04 0.02 0.03 0.06 0.07 0.07 0.06 0.05 0.05 0.05 0.04
0.02 0.03 0.03 0.03 0.03 0.02 0.01 0.00 0.01 0.01 0.01 0.01 0.02 0.02 0.02 0.03 0.04 0.04 0.04 0.04 0.05 0.05 0.04 0.05 0.09 0.09 0.07 0.05 0.04 0.03 0.04 0.06 0.07 0.07 0.08 0.07 0.06 0.04
0.02 0.03 0.03 0.03 0.04 0.03 0.02 0.01 0.02 0.02 0.02 0.01 0.01 0.02 0.02 0.01 0.02 0.03 0.03 0.03 0.04 0.04 0.03 0.03 0.07 0.09 0.08 0.05 0.04 0.04 0.04 0.05 0.05 0.05 0.07 0.09 0.08 0.07
0.02 0.04 0.02 0.02 0.03 0.03 0.04 0.03 0.03 0.02 0.02 0.02 0.01 0.02 0.02 0.02 0.02 0.02 0.03 0.03 0.04 0.03 0.04 0.03 0.05 0.07 0.09 0.08 0.07 0.06 0.05 0.06 0.06 0.05 0.04 0.05 0.05 0.05
0.02 0.03 0.03 0.03 0.03 0.03 0.04 0.04 0.04 0.03 0.03 0.02 0.02 0.02 0.02 0.02 0.02 0.02 0.02 0.02 0.02 0.03 0.03 0.03 0.05 0.06 0.06 0.08 0.09 0.08 0.07 0.08 0.07 0.07 0.07 0.06 0.06 0.05
0.05 0.05 0.04 0.03 0.03 0.02 0.02 0.03 0.03 0.04 0.04 0.03 0.02 0.02 0.01 0.01 0.01 0.01 0.02 0.02 0.01 0.01 0.02 0.02 0.04 0.05 0.05 0.06 0.10 0.09 0.07 0.07 0.07 0.07 0.07 0.07 0.07 0.07
0.05 0.05 0.04 0.04 0.03 0.02 0.01 0.02 0.02 0.02 0.03 0.03 0.03 0.03 0.02 0.02 0.01 0.01 0.02 0.02 0.02 0.03 0.03 0.02 0.03 0.04 0.05 0.07 0.10 0.11 0.08 0.05 0.04 0.05 0.06 0.06 0.05 0.06
0.02 0.02 0.02 0.03 0.02 0.02 0.01 0.01 0.01 0.02 0.02 0.03 0.03 0.04 0.03 0.03 0.02 0.02 0.02 0.02 0.03 0.04 0.04 0.04 0.04 0.05 0.06 0.08 0.08 0.09 0.09 0.05 0.04 0.04 0.05 0.05 0.04 0.05
0.02 0.02 0.01 0.01 0.01 0.01 0.01 0.01 0.01 0.01 0.02 0.03 0.03 0.03 0.03 0.03 0.02 0.02 0.02 0.03 0.03 0.03 0.04 0.04 0.03 0.04 0.05 0.07 0.09 0.09 0.10 0.08 0.04 0.03 0.03 0.03 0.03 0.05
0.01 0.01 0.01 0.00 0.00 0.00 0.00 0.01 0.01 0.01 0.02 0.03 0.03 0.03 0.03 0.03 0.03 0.03 0.03 0.03 0.04 0.04 0.04 0.04 0.04 0.04 0.05 0.06 0.07 0.07 0.07 0.08 0.07 0.04 0.03 0.03 0.03 0.03
0.01 0.01 0.01 0.00 0.00 0.00 0.00 0.01 0.01 0.01 0.01 0.03 0.03 0.03 0.03 0.04 0.04 0.04 0.04 0.04 0.04 0.03 0.04 0.04 0.04 0.04 0.04 0.06 0.06 0.05 0.05 0.05 0.06 0.05 0.04 0.05 0.04 0.04
0.01 0.01 0.01 0.01 0.01 0.01 0.01 0.01 0.01 0.01 0.01 0.01 0.01 0.02 0.03 0.04 0.04 0.05 0.05 0.05 0.05 0.06 0.07 0.07 0.06 0.05 0.05 0.05 0.05 0.05 0.05 0.05 0.04 0.04 0.04 0.05 0.06 0.05
MSLP
1008.95 1009.30 1009.75 1010.24 1010.76 1011.26 1011.71 1012.11 1012.45 1012.75 1013.02 1013.29 1013.56 1013.85 1014.16 1014.48 1014.82 1015.17 1015.53 1015.91 1016.29 1016.68 1017.06 1017.43 1017.78 1018.08 1018.35 1018.57 1018.75 1018.91 1019.06 1019.20 1019.35 1019.51 1019.66 1019.79 1019.89 1019.95
1008.31 1008.59 1008.97 1009.42 1009.91 1010.40 1010.88 1011.32 1011.73 1012.11 1012.47 1012.83 1013.19 1013.56 1013.93 1014.31 1014.69 1015.07 1015.45 1015.83 1016.20 1016.57 1016.92 1017.25 1017.56 1017.83 1018.08 1018.29 1018.48 1018.66 1018.83 1019.01 1019.19 1019.37 1019.54 1019.68 1019.79 1019.84
1007.75 1007.97 1008.30 1008.71 1009.17 1009.65 1010.14 1010.61 1011.06 1011.51 1011.94 1012.37 1012.80 1013.23 1013.67 1014.11 1014.53 1014.95 1015.36 1015.75 1016.12 1016.47 1016.80 1017.10 1017.38 1017.63 1017.86 1018.06 1018.25 1018.44 1018.63 1018.83 1019.04 1019.25 1019.44 1019.60 1019.71 1019.76
1007.29 1007.48 1007.76 1008.13 1008.56 1009.02 1009.50 1009.98 1010.46 1010.93 1011.39 1011.87 1012.35 1012.83 1013.31 1013.80 1014.27 1014.73 1015.17 1015.59 1015.98 1016.34 1016.67 1016.96 1017.22 1017.46 1017.66 1017.86 1018.05 1018.24 1018.45 1018.67 1018.90 1019.13 1019.34 1019.51 1019.63 1019.69
1006.94 1007.10 1007.35 1007.67 1008.06 1008.49 1008.94 1009.40 1009.87 1010.33 1010.80 1011.28 1011.77 1012.28 1012.80 1013.32 1013.84 1014.34 1014.83 1015.30 1015.72 1016.11 1016.46 1016.77 1017.04 1017.27 1017.47 1017.67 1017.85 1018.05 1018.26 1018.50 1018.74 1018.98 1019.21 1019.40 1019.53 1019.60
1006.68 1006.81 1007.02 1007.30 1007.63 1008.01 1008.41 1008.82 1009.24 1009.66 1010.10 1010.56 1011.04 1011.54 1012.07 1012.62 1013.18 1013.74 1014.28 1014.81 1015.29 1015.74 1016.13 1016.48 1016.77 1017.02 1017.23 1017.43 1017.62 1017.82 1018.04 1018.27 1018.52 1018.77 1019.00 1019.20 1019.35 1019.43
1006.49 1006.57 1006.73 1006.95 1007.21 1007.51 1007.84 1008.17 1008.52 1008.88 1009.27 1009.68 1010.12 1010.62 1011.15 1011.71 1012.31 1012.92 1013.53 1014.13 1014.69 1015.20 1015.66 1016.05 1016.39 1016.67 1016.91 1017.12 1017.32 1017.51 1017.73 1017.96 1018.20 1018.45 1018.69 1018.89 1019.05 1019.14
1006.31 1006.33 1006.42 1006.55 1006.73 1006.95 1007.18 1007.43 1007.70 1007.99 1008.31 1008.67 1009.09 1009.56 1010.09 1010.68 1011.31 1011.97 1012.65 1013.31 1013.95 1014.53 1015.06 1015.51 1015.90 1016.22 1016.49 1016.71 1016.92 1017.12 1017.32 1017.55 1017.78 1018.02 1018.25 1018.45 1018.61 1018.72
1006.09 1006.03 1006.03 1006.08 1006.17 1006.29 1006.44 1006.61 1006.81 1007.04 1007.31 1007.64 1008.04 1008.51 1009.05 1009.66 1010.32 1011.03 1011.76 1012.48 1013.18 1013.83 1014.41 1014.92 1015.35 1015.70 1015.99 1016.23 1016.44 1016.63 1016.83 1017.04 1017.25 1017.47 1017.69 1017.89 1018.04 1018.15
1005.79 1005.66 1005.56 1005.52 1005.52 1005.56 1005.64 1005.76 1005.92 1006.13 1006.39 1006.72 1007.13 1007.61 1008.18 1008.82 1009.52 1010.26 1011.02 1011.78 1012.51 1013.19 1013.80 1014.34 1014.79 1015.16 1015.46 1015.70 1015.91 1016.10 1016.28 1016.47 1016.66 1016.86 1017.05 1017.23 1017.38 1017.48
1005.43 1005.21 1005.03 1004.91 1004.85 1004.84 1004.89 1005.00 1005.16 1005.39 1005.69 1006.06 1006.51 1007.04 1007.64 1008.32 1009.04 1009.80 1010.57 1011.33 1012.06 1012.73 1013.33 1013.85 1014.30 1014.66 1014.95 1015.19 1015.39 1015.56 1015.72 1015.89 1016.05 1016.22 1016.38 1016.53 1016.66 1016.75
1005.03 1004.75 1004.52 1004.35 1004.25 1004.24 1004.30 1004.44 1004.66 1004.95 1005.32 1005.77 1006.29 1006.89 1007.54 1008.23 1008.97 1009.71 1010.46 1011.18 1011.86 1012.48 1013.03 1013.51 1013.91 1014.25 1014.51 1014.73 1014.91 1015.06 1015.20 1015.34 1015.47 1015.60 1015.73 1015.85 1015.95 1016.01
1004.68 1004.37 1004.11 1003.94 1003.85 1003.86 1003.97 1004.19 1004.49 1004.88 1005.36 1005.90 1006.51 1007.16 1007.85 1008.56 1009.28 1009.98 1010.66 1011.31 1011.89 1012.43 1012.89 1013.29 1013.63 1013.91 1014.15 1014.33 1014.49 1014.62 1014.74 1014.85 1014.95 1015.05 1015.14 1015.21 1015.27 1015.30
1004.46 1004.15 1003.92 1003.77 1003.72 1003.79 1003.99 1004.29 1004.70 1005.20 1005.78 1006.41 1007.09 1007.79 1008.50 1009.20 1009.86 1010.49 1011.07 1011.60 1012.07 1012.48 1012.84 1013.15 1013.41 1013.64 1013.83 1013.99 1014.13 1014.24 1014.35 1014.43 1014.51 1014.56 1014.61 1014.64 1014.64 1014.63
1004.42 1004.17 1003.99 1003.90 1003.92 1004.07 1004.35 1004.74 1005.24 1005.83 1006.49 1007.19 1007.91 1008.63 1009.31 1009.96 1010.55 1011.07 1011.53 1011.92 1012.26 1012.54 1012.79 1013.00 1013.19 1013.36 1013.52 1013.67 1013.80 1013.91 1014.00 1014.07 1014.12 1014.14 1014.14 1014.12 1014.07 1014.00
1004.60 1004.44 1004.33 1004.32 1004.42 1004.65 1004.99 1005.45 1006.02 1006.66 1007.35 1008.07 1008.79 1009.47 1010.10 1010.66 1011.14 1011.54 1011.86 1012.12 1012.32 1012.49 1012.63 1012.77 1012.90 1013.04 1013.19 1013.34 1013.47 1013.59 1013.69 1013.75 1013.77 1013.76 1013.71 1013.63 1013.53 1013.40
1004.97 1004.91 1004.90 1004.98 1005.15 1005.43 1005.82 1006.31 1006.88 1007.52 1008.20 1008.88 1009.54 1010.15 1010.69 1011.14 1011.50 1011.77 1011.96 1012.09 1012.18 1012.25 1012.33 1012.41 1012.53 1012.66 1012.82 1012.98 1013.14 1013.27 1013.38 1013.43 1013.44 1013.39 1013.29 1013.16 1012.99 1012.81
1005.43 1005.49 1005.58 1005.73 1005.95 1006.26 1006.66 1007.14 1007.68 1008.27 1008.88 1009.48 1010.05 1010.55 1010.97 1011.31 1011.55 1011.70 1011.79 1011.83 1011.84 1011.86 1011.89 1011.96 1012.08 1012.23 1012.41 1012.61 1012.80 1012.96 1013.07 1013.12 1013.10 1013.01 1012.87 1012.67 1012.45 1012.21
1005.88 1006.05 1006.23 1006.44 1006.70 1007.01 1007.38 1007.81 1008.28 1008.79 1009.30 1009.80 1010.25 1010.64 1010.96 1011.19 1011.33 1011.40 1011.41 1011.40 1011.37 1011.37 1011.41 1011.49 1011.63 1011.82 1012.04 1012.27 1012.48 1012.65 1012.77 1012.80 1012.76 1012.63 1012.43 1012.18 1011.89 1011.60
1006.22 1006.48 1006.73 1006.98 1007.25 1007.55 1007.88 1008.24 1008.63 1009.04 1009.45 1009.84 1010.19 1010.48 1010.71 1010.86 1010.94 1010.97 1010.96 1010.93 1010.91 1010.92 1010.98 1011.10 1011.27 1011.49 1011.74 1011.99 1012.22 1012.39 1012.49 1012.51 1012.42 1012.25 1012.00 1011.69 1011.35 1011.00
1006.38 1006.71 1007.01 1007.29 1007.56 1007.83 1008.11 1008.41 1008.73 1009.05 1009.37 1009.68 1009.95 1010.18 1010.35 1010.47 1010.54 1010.56 1010.56 1010.56 1010.57 1010.62 1010.71 1010.87 1011.07 1011.32 1011.58 1011.83 1012.05 1012.20 1012.27 1012.24 1012.12 1011.89 1011.59 1011.24 1010.85 1010.47
1006.38 1006.75 1007.08 1007.37 1007.64 1007.88 1008.13 1008.38 1008.63 1008.89 1009.16 1009.41 1009.65 1009.85 1010.02 1010.15 1010.24 1010.30 1010.34 1010.39 1010.45 1010.55 1010.68 1010.86 1011.08 1011.32 1011.57 1011.80 1011.98 1012.09 1012.11 1012.03 1011.86 1011.59 1011.24 1010.85 1010.43 1010.02
1006.28 1006.67 1007.01 1007.30 1007.56 1007.79 1008.00 1008.22 1008.45 1008.68 1008.92 1009.16 1009.40 1009.62 1009.81 1009.98 1010.12 1010.24 1010.35 1010.46 1010.58 1010.71 1010.88 1011.07 1011.28 1011.50 1011.71 1011.88 1012.00 1012.05 1012.01 1011.88 1011.65 1011.34 1010.97 1010.55 1010.12 1009.69
Thickness
5734 5732 5731 5731 5731 5730 5728 5725 5719 5713 5714 5719 5721 5724 5724 5724 5724 5724 5724 5724 5724 5722 5721 5719 5718 5716 5714 5712 5711 5709 5707 5706 5704 5702 5701 5700 5698 5697
5729 5728 5726 5726 5726 5725 5724 5722 5720 5715 5711 5715 5717 5719 5719 5720 5720 5719 5720 5720 5719 5718 5717 5715 5714 5712 5710 5708 5707 5705 5704 5702 5700 5699 5698 5697 5696 5695
5723 5722 5721 5721 5719 5719 5718 5717 5715 5713 5709 5711 5713 5714 5714 5714 5714 5714 5714 5714 5714 5713 5712 5710 5709 5708 5706 5704 5703 5701 5700 5698 5697 5695 5694 5693 5692 5691
5716 5715 5714 5715 5713 5713 5712 5711 5710 5709 5707 5704 5705 5705 5706 5707 5708 5708 5708 5709 5709 5709 5708 5706 5705 5703 5701 5700 5698 5697 5696 5694 5693 5691 5690 5690 5689 5687
5711 5710 5709 5708 5706 5706 5705 5705 5704 5704 5703 5700 5698 5699 5699 5700 5700 5700 5701 5702 5703 5703 5702 5701 5699 5698 5697 5695 5693 5692 5691 5690 5688 5687 5686 5685 5684 5683
5705 5704 5703 5702 5701 5700 5699 5698 5697 5696 5694 5692 5691 5691 5691 5692 5691 5690 5691 5693 5694 5695 5695 5694 5693 5692 5691 5690 5689 5687 5686 5685 5684 5683 5681 5680 5679 5679
5699 5698 5698 5697 5697 5695 5694 5692 5691 5688 5687 5685 5684 5683 5682 5682 5682 5683 5682 5683 5685 5687 5686 5687 5686 5685 5685 5684 5683 5682 5681 5680 5678 5677 5676 5675 5674 5673
5691 5690 5690 5690 5690 5689 5689 5687 5686 5683 5680 5678 5677 5676 5676 5676 5676 5676 5674 5673 5674 5678 5677 5678 5678 5677 5678 5678 5677 5676 5675 5674 5673 5672 5670 5669 5668 5667
5683 5682 5683 5683 5681 5681 5680 5680 5679 5678 5677 5674 5671 5671 5671 5671 5671 5669 5668 5667 5668 5671 5669 5669 5670 5670 5671 5672 5671 5670 5669 5668 5667 5666 5665 5663 5662 5661
5676 5675 5674 5673 5674 5673 5672 5670 5669 5669 5669 5669 5668 5667 5668 5667 5666 5665 5663 5662 5662 5663 5663 5660 5662 5663 5665 5665 5665 5664 5663 5662 5662 5661 5659 5658 5657 5655
5669 5668 5667 5667 5667 5666 5664 5661 5660 5660 5662 5662 5662 5661 5661 5660 5659 5656 5654 5651 5650 5652 5653 5652 5654 5655 5656 5658 5659 5658 5658 5657 5656 5655 5653 5652 5650 5648
5661 5661 5661 5661 5660 5658 5656 5653 5651 5652 5652 5653 5653 5652 5652 5651 5651 5648 5646 5642 5640 5641 5645 5644 5644 5644 5645 5649 5651 5651 5650 5650 5649 5649 5648 5646 5644 5642
5652 5652 5653 5653 5653 5651 5649 5648 5647 5646 5644 5644 5643 5642 5642 5641 5641 5640 5639 5636 5634 5634 5637 5636 5635 5635 5635 5637 5640 5642 5643 5643 5642 5642 5641 5640 5638 5636
5644 5645 5645 5646 5646 5645 5643 5642 5641 5639 5636 5634 5632 5631 5631 5631 5631 5631 5631 5630 5629 5629 5629 5628 5627 5626 5625 5626 5628 5632 5634 5635 5635 5634 5634 5633 5631 5630
5638 5639 5638 5638 5638 5636 5635 5634 5632 5629 5627 5625 5623 5622 5622 5622 5622 5621 5621 5621 5621 5621 5621 5621 5620 5620 5619 5618 5619 5621 5623 5625 5626 5625 5625 5625 5624 5622
5630 5630 5630 5630 5629 5628 5626 5625 5623 5621 5618 5616 5615 5614 5614 5613 5612 5611 5610 5610 5610 5611 5613 5613 5613 5612 5611 5611 5611 5611 5613 5614 5616 5616 5616 5616 5616 5615
5622 5621 5620 5619 5618 5617 5616 5615 5614 5612 5610 5609 5607 5606 5605 5604 5603 5603 5601 5600 5599 5600 5601 5603 5604 5604 5604 5604 5602 5603 5604 5604 5606 5607 5606 5606 5606 5607
5614 5611 5610 5609 5608 5607 5606 5605 5604 5603 5602 5600 5599 5597 5596 5595 5594 5594 5593 5592 5592 5592 5593 5593 5594 5594 5594 5595 5595 5595 5595 5595 5596 5596 5597 5596 5597 5598
5606 5604 5602 5601 5600 5599 5597 5596 5596 5595 5594 5593 5591 5590 5589 5587 5586 5585 5585 5585 5585 5585 5586 5586 5585 5584 5583 5584 5587 5588 5587 5587 5587 5587 5587 5588 5588 5590
5599 5597 5596 5595 5593 5592 5591 5589 5588 5587 5586 5585 5584 5583 5582 5580 5578 5578 5578 5578 5578 5579 5579 5579 5578 5578 5578 5578 5577 5579 5581 5580 5579 5578 5578 5579 5580 5582
5593 5591 5590 5589 5587 5586 5585 5583 5582 5580 5579 5578 5577 5576 5575 5574 5573 5573 5572 5572 5572 5572 5572 5572 5574 5574 5573 5571 5570 5570 5571 5573 5573 5572 5571 5570 5570 5571
5587 5586 5584 5583 5581 5580 5578 5577 5575 5574 5573 5571 5571 5570 5569 5568 5568 5567 5567 5566 5566 5565 5566 5566 5566 5566 5565 5563 5562 5561 5562 5563 5564 5564 5564 5565 5564 5563
5582 5580 5579 5577 5575 5574 5572 5571 5570 5568 5568 5567 5566 5565 5564 5563 5562 5561 5561 5560 5560 5560 5559 5558 5558 5558 5558 5557 5555 5554 5554 5554 5553 5553 5555 5557 5558 5559